K3XY-2 Weather Reports


Display with metric or nautical units.
time (UTC)temp
F
wind
direction
speed
MPH
gust
MPH
rain 1hr
in
rain 24hr
in
rain mn
in
humidity
%
barometer
mb
20260503205904 60 0 0.0 0.0 0.00 0.00 0.00 35 1011.5
20260503204905 60 0 0.0 0.0 0.00 0.00 0.00 38 1011.5
20260503203905 60 0 0.0 0.0 0.00 0.00 0.00 36 1011.5
20260503202905 60 0 0.0 0.0 0.00 0.00 0.00 39 1011.7
20260503201904 59 0 0.0 0.0 0.00 0.00 0.00 40 1011.8
20260503200905 59 0 0.0 0.0 0.00 0.00 0.00 37 1011.8
20260503195905 59 0 0.0 0.0 0.00 0.00 0.00 42 1012.0
20260503194905 59 0 0.0 0.0 0.00 0.00 0.00 43 1012.1
20260503193904 58 0 0.0 0.0 0.00 0.00 0.00 40 1012.2
20260503192905 59 0 0.0 0.0 0.00 0.00 0.00 38 1012.2
20260503191905 57 0 0.0 0.0 0.00 0.00 0.00 41 1012.3
20260503190905 57 0 0.0 0.0 0.00 0.00 0.00 37 1012.5
20260503185904 58 0 0.0 0.0 0.00 0.00 0.00 38 1012.9
20260503184905 58 0 0.0 0.0 0.00 0.00 0.00 39 1012.9
20260503183905 57 0 0.0 0.0 0.00 0.00 0.00 40 1013.1
20260503182904 58 0 0.0 0.0 0.00 0.00 0.00 40 1013.0
20260503181904 58 0 0.0 0.0 0.00 0.00 0.00 44 1013.0
20260503180905 57 0 0.0 0.0 0.00 0.00 0.00 41 1013.2
20260503175905 57 0 0.0 0.0 0.00 0.00 0.00 37 1013.2
20260503174904 58 0 0.0 0.0 0.00 0.00 0.00 42 1013.1
20260503173905 56 0 0.0 0.0 0.00 0.00 0.00 39 1013.2
20260503172905 55 0 0.0 0.0 0.00 0.00 0.00 38 1013.3
20260503171904 55 0 0.0 0.0 0.00 0.00 0.00 38 1013.5
20260503170904 55 0 0.0 0.0 0.00 0.00 0.00 42 1013.5
20260503150904 52 0 0.0 0.0 0.00 0.00 0.00 48 1014.2
20260503130904 0 0.0 0.0 0.00 0.00 0.00 1014.1
20260503080904 0 0.0 0.0 0.00 0.00 0.00 1011.1
20260503072903 42 0 0.0 0.0 0.00 0.00 0.00 74 1011.0
20260503071904 42 0 0.0 0.0 0.00 0.00 0.00 73 1010.9
20260503070904 42 0 0.0 0.0 0.00 0.00 0.00 72 1010.8
20260503054904 44 0 0.0 0.0 0.00 0.00 0.00 69 1011.2
20260503053904 45 0 0.0 0.0 0.00 0.00 0.00 67 1011.3
20260503052904 45 0 0.0 0.0 0.00 0.00 0.00 66 1011.4
20260503051904 45 0 0.0 0.0 0.00 0.00 0.00 66 1011.5
20260503050903 46 0 0.0 0.0 0.00 0.00 0.00 65 1011.5
20260503045904 46 0 0.0 0.0 0.00 0.00 0.00 65 1011.5
20260503044904 47 0 0.0 0.0 0.00 0.00 0.00 64 1011.6
20260503043904 47 0 0.0 0.0 0.00 0.00 0.00 64 1011.7
20260503042903 47 0 0.0 0.0 0.00 0.00 0.00 63 1011.8
20260503041904 47 0 0.0 0.0 0.00 0.00 0.00 63 1011.9
20260503040904 47 0 0.0 0.0 0.00 0.00 0.00 63 1012.0
20260503035904 47 0 0.0 0.0 0.00 0.00 0.00 63 1012.0
20260503034904 47 0 0.0 0.0 0.00 0.00 0.00 63 1012.1
20260503033904 47 0 0.0 0.0 0.00 0.00 0.00 62 1012.2
20260503032904 47 0 0.0 0.0 0.00 0.00 0.00 61 1012.1
20260503031903 48 0 0.0 0.0 0.00 0.00 0.00 60 1012.1
20260503030904 48 0 0.0 0.0 0.00 0.00 0.00 60 1012.1
20260503025904 48 0 0.0 0.0 0.00 0.00 0.00 58 1012.2
20260503024903 48 0 0.0 0.0 0.00 0.00 0.00 58 1012.2
20260503023903 48 0 0.0 0.0 0.00 0.00 0.00 58 1012.2
20260503022904 48 0 0.0 0.0 0.00 0.00 0.00 58 1012.2
20260503021904 48 0 0.0 0.0 0.00 0.00 0.00 58 1012.2
20260503020903 48 0 0.0 0.0 0.00 0.00 0.00 58 1012.3
20260503015904 48 0 0.0 0.0 0.00 0.00 0.00 57 1012.2
20260503014904 48 0 0.0 0.0 0.00 0.00 0.00 58 1012.2
20260503013903 49 0 0.0 0.0 0.00 0.00 0.00 56 1012.1
20260503012903 49 0 0.0 0.0 0.00 0.00 0.00 55 1012.2
20260503011904 49 0 0.0 0.0 0.00 0.00 0.00 54 1012.0
20260503010904 50 0 0.0 0.0 0.00 0.00 0.00 54 1012.0
20260503005903 50 0 0.0 0.0 0.00 0.00 0.00 53 1011.7
20260503004904 51 0 0.0 0.0 0.00 0.00 0.00 53 1011.7
20260503003904 51 0 0.0 0.0 0.00 0.00 0.00 51 1011.5
20260503002903 51 0 0.0 0.0 0.00 0.00 0.00 50 1011.5
20260503001903 52 0 0.0 0.0 0.00 0.00 0.00 51 1011.4
20260503000904 52 0 0.0 0.0 0.00 0.00 0.00 50 1011.4
20260502235904 52 0 0.0 0.0 0.00 0.00 0.00 49 1011.3
20260502234903 53 0 0.0 0.0 0.00 0.00 0.00 47 1011.1
20260502233903 53 0 0.0 0.0 0.00 0.00 0.00 47 1011.0
20260502232904 53 0 0.0 0.0 0.00 0.00 0.00 47 1010.8
20260502231903 54 0 0.0 0.0 0.00 0.00 0.00 46 1010.8
20260502230903 54 0 0.0 0.0 0.00 0.00 0.00 46 1010.9
20260502225904 55 0 0.0 0.0 0.00 0.00 0.00 46 1010.9
20260502224904 55 0 0.0 0.0 0.00 0.00 0.00 45 1010.9
20260502223903 55 0 0.0 0.0 0.00 0.00 0.00 44 1010.9
20260502222903 56 0 0.0 0.0 0.00 0.00 0.00 44 1010.8
20260502221904 56 0 0.0 0.0 0.00 0.00 0.00 44 1010.7
20260502220903 56 0 0.0 0.0 0.00 0.00 0.00 44 1010.7
20260502215903 56 0 0.0 0.0 0.00 0.00 0.00 44 1010.6
20260502214903 57 0 0.0 0.0 0.00 0.00 0.00 44 1010.7
20260502213904 57 0 0.0 0.0 0.00 0.00 0.00 43 1010.5
20260502212903 57 0 0.0 0.0 0.00 0.00 0.00 44 1010.5
20260502211903 57 0 0.0 0.0 0.00 0.00 0.00 42 1010.5
20260502210904 58 0 0.0 0.0 0.00 0.00 0.00 44 1010.4